#timestamp,LO_Frequency,Hit,StdDev 
1653008415.3,286046998.7,N
1653008435.1,286046999.1,N
1653008455.8,286046998.1,N
1653008475.7,286047001.1,N
1653008495.6,286047001.1,N
1653008515.4,286046998.9,N
1653008535.3,286046998.3,N
1653008555.1,286046998.3,N
1653008575.9,286046998.9,N
1653008595.7,286046998.6,N
1653008615.5,286047000.7,N
1653008635.4,286047000.8,N
1653008655.2,286047000.8,N
1653008675.0,286047000.7,N
1653008676.0,286047000.7,N
1653008695.8,286047001.1,N
1653008715.6,286047001.2,N
1653008735.5,286046998.1,N
1653008755.3,286047000.9,N
1653008775.1,286047001.0,N
1653008795.9,286047000.5,N
1653008815.7,286047001.0,N
1653008835.6,286047000.7,N
1653008855.4,286047000.9,N
1653008875.2,286046998.5,N
1653008895.1,286047000.7,N
1653008896.0,286047000.7,N
1653008915.8,286047001.2,N
1653008935.6,286047000.8,N
1653008955.5,286047000.6,N
1653008975.3,286046999.7,N
1653008995.2,286047000.3,N
1653009015.9,286047002.0,N
1653009035.7,286047001.6,N
1653009055.6,286047002.1,N
1653009075.4,286047001.4,N
1653009095.2,286047002.6,N
1653009115.1,286047000.0,N
1653009116.0,286047000.0,N
1653009135.8,286047002.4,N
1653009155.7,286047002.5,N
1653009175.5,286047001.7,N
1653009195.3,286047002.7,N
1653009215.2,286047002.4,N
1653009235.0,286046999.7,N
1653009235.9,286046999.7,N
1653009255.8,286047000.6,N
1653009275.6,286046998.7,N
1653009295.4,286046998.4,N
1653009315.3,286047000.4,N
1653009335.1,286047001.2,N
1653009355.8,286046999.7,N
1653009375.7,286046999.8,N
1653009395.5,286047002.2,N
1653009415.4,286047002.8,N
1653009435.2,286047001.6,N
1653009455.0,286047002.0,N
1653009455.9,286047002.0,N
1653009475.8,286046999.7,N
1653009495.6,286047002.6,N
1653009515.4,286046999.9,N
1653009535.3,286047002.6,N
1653009555.1,286047002.5,N
1653009575.9,286047002.3,N
1653009595.7,286047002.5,N
1653009615.5,286047001.8,N
1653009635.4,286047001.9,N
1653009655.2,286047001.7,N
1653009675.1,286047002.6,N
1653009676.0,286047002.6,N
1653009695.8,286047001.5,N
1653009715.6,286047001.6,N
1653009735.5,286047004.4,Y
1653009755.3,286047000.1,P
1653009775.1,286047002.3,P
1653009795.9,286047002.7,N
1653009815.7,286047000.7,N
1653009835.6,286047000.6,N
1653009855.4,286047000.4,N
1653009875.2,286047000.1,N
1653009895.1,286047002.7,N
1653009896.0,286047002.7,N
1653009915.8,286047002.3,N
1653009935.7,286047002.3,N
1653009955.5,286047002.7,N
1653009975.3,286047002.8,N
1653009995.2,286047002.5,N
1653010015.9,286047002.5,N
1653010035.7,286047002.1,N
1653010055.6,286046999.7,N
1653010075.4,286047002.4,N
1653010095.3,286047000.2,N
1653010115.1,286047000.2,N
1653010116.0,286047000.2,N
1653010135.8,286046999.9,N
1653010155.7,286047000.4,N
1653010175.5,286047000.5,N
1653010195.3,286047002.8,N
1653010215.2,286047002.5,N
1653010235.0,286046999.8,N
1653010235.9,286046999.8,N
1653010255.8,286046999.7,N
1653010275.6,286047002.7,N
1653010295.4,286047002.3,N
1653010315.3,286046999.9,N
1653010335.1,286047002.8,N
1653010355.8,286047002.7,N
1653010375.7,286046999.8,N
1653010395.5,286046999.7,N
1653010415.4,286047002.7,N
1653010435.2,286047000.3,N
1653010455.0,286047000.2,N
1653010455.9,286047000.2,N
1653010475.8,286047002.4,N
1653010495.6,286047002.5,N
1653010515.4,286047002.6,N
1653010535.3,286047002.8,N
1653010555.1,286047002.2,N
1653010575.9,286047000.5,N
1653010595.7,286047000.3,N
1653010615.5,286046999.8,N
1653010635.4,286047000.0,N
1653010655.2,286047002.3,N
1653010675.1,286047002.2,N
1653010676.0,286047002.2,N
1653010695.8,286047002.7,N
1653010715.6,286047001.8,N
1653010735.5,286047004.2,Y
1653010755.3,286046999.9,P
1653010775.2,286047000.6,N
1653010795.9,286047000.6,N
1653010815.7,286047000.6,N
1653010835.6,286047001.2,N
1653010855.4,286046996.7,Y
1653010875.2,286046995.3,P
1653010895.1,286046997.5,N
1653010896.0,286046997.5,N
1653010915.8,286046994.9,N
1653010935.7,286046995.8,N
1653010955.5,286046995.9,N
1653010975.3,286046995.8,N
1653010995.2,286046995.5,N
1653011015.0,286046995.1,N
1653011015.9,286046995.1,N
1653011035.8,286046995.0,Y
1653011055.6,286046998.2,P
1653011075.4,286046999.0,N
1653011095.3,286046998.4,N
1653011115.1,286046999.2,N
1653011135.8,286046996.5,Y
1653011155.7,286047000.5,P
1653011205.5,286047002.2,E
1653011215.5,286047001.1,N
1653011235.3,286046997.0,P
1653011255.1,286046996.6,N
1653011275.9,286046999.4,N
1653011295.7,286046998.5,N
1653011315.5,286046998.5,N
1653011335.4,286046996.7,N
1653011355.2,286046999.5,N
1653011375.1,286046997.1,N
1653011376.0,286046997.1,N
1653011395.8,286046999.5,N
1653011415.6,286046999.6,N
1653011435.5,286046997.7,N
1653011455.3,286046997.2,N
1653011475.2,286046997.9,N
1653011495.9,286046997.3,N
1653011515.7,286046995.8,Y
1653011535.6,286046996.6,P
1653011555.4,286046998.7,N
1653011575.2,286046998.9,N
1653011595.1,286046998.6,N
1653011596.0,286046998.6,N
1653011615.8,286047001.1,N
1653011635.7,286047001.2,N
1653011655.5,286046998.9,N
1653011675.3,286046997.4,N
1653011695.2,286046999.3,N
1653011715.0,286046999.2,N
1653011715.9,286046999.2,N
1653011735.8,286046997.2,N
1653011755.6,286046995.0,Y
1653011775.4,286046996.5,P
1653011795.3,286046996.8,N
1653011815.1,286046997.7,N
1653011835.9,286046997.3,Y
1653011855.7,286046999.9,P
1653011875.5,286046999.9,N
1653011895.4,286047002.6,N
1653011915.2,286047000.5,N
1653011935.0,286047000.1,N
1653011935.9,286047000.1,N
1653011955.8,286047000.3,N
1653011975.6,286047000.0,N
1653011995.5,286047000.5,N
